Temperature
28 29 29 28 28 28 28 29 29 29 29 28 27 26 25 24 23 22 21 20 19 19 18 18 17 17 17 17 16 16 16 16 16 16 16 16 16 16 16 16 16 16 16 16
27 28 28 28 28 28 28 28 29 29 28 26 25 24 23 23 22 21 20 20 19 18 18 17 17 17 17 17 16 16 16 16 16 16 16 16 16 16 16 16 16 16 16 16
26 27 27 27 27 28 28 28 28 28 27 25 24 23 22 21 21 20 20 19 18 18 17 17 17 17 17 17 16 16 16 16 16 16 16 16 16 16 16 16 16 16 16 15
26 26 25 27 27 28 27 27 27 27 26 25 23 21 20 19 19 19 19 18 17 17 17 17 17 17 17 17 16 16 16 16 16 16 16 16 16 15 15 15 15 15 15 15
26 25 26 25 25 26 26 26 26 26 24 22 21 20 19 18 18 18 17 17 16 17 17 17 17 16 16 16 16 16 16 16 16 16 16 16 16 15 15 15 15 15 15 15
25 25 25 26 25 25 26 25 25 24 23 22 22 24 21 17 17 17 16 16 16 16 16 16 16 16 16 16 16 16 16 16 16 16 16 15 15 15 15 15 14 14 14 14
24 24 25 24 24 24 24 25 23 22 22 21 22 21 18 16 16 15 15 16 16 16 16 16 16 15 16 16 15 15 15 15 15 15 15 15 15 14 14 14 14 14 14 14
24 24 24 22 23 24 22 21 21 21 20 20 18 17 16 16 15 15 15 15 15 15 15 15 15 15 15 15 15 15 15 15 15 15 14 14 14 14 14 13 13 13 13 12
23 23 20 20 20 19 19 19 19 19 19 18 17 16 15 15 14 14 14 14 14 14 14 14 14 14 14 14 14 14 14 14 14 14 14 13 13 13 13 13 13 12 12 12
20 20 19 18 18 17 18 18 18 18 17 17 16 15 15 14 14 13 13 14 14 14 14 13 13 14 14 14 14 14 14 13 13 13 13 12 12 12 12 12 12 11 11 11
20 19 18 17 17 16 16 16 16 16 16 16 15 14 14 13 13 13 13 13 13 13 13 12 13 13 13 13 13 13 13 12 12 12 12 12 11 11 11 11 11 11 10 10
20 18 19 17 15 15 15 15 15 15 15 15 14 13 13 12 12 12 12 12 12 12 12 12 12 12 12 12 12 12 12 12 11 11 11 11 11 10 10 10 10 10 9 9
17 17 16 15 14 14 14 14 14 14 14 13 13 13 12 12 12 12 12 12 11 12 12 12 12 11 11 12 12 12 11 11 11 10 10 10 10 10 9 8 8 8 8 8
14 14 14 14 14 13 13 13 13 13 13 13 12 12 12 11 11 11 11 11 11 11 11 11 11 11 11 11 11 11 10 10 10 10 9 9 9 9 8 8 7 7 7 7
14 14 14 13 13 13 13 13 13 12 12 12 12 11 11 11 11 10 10 11 11 10 10 10 10 10 10 10 10 10 10 10 10 9 9 8 8 8 8 7 7 7 6 6
13 13 13 13 12 12 12 12 12 11 11 11 11 11 11 10 10 10 10 10 10 10 10 10 10 10 10 10 10 9 9 9 9 9 8 8 8 8 7 7 7 7 6 6
13 13 13 12 12 12 12 12 11 11 11 10 10 10 10 10 9 9 9 9 10 9 9 9 9 9 9 9 9 9 9 9 8 8 8 8 8 7 7 7 7 6 6 5
13 13 12 12 12 11 11 11 10 10 10 10 10 10 10 9 9 9 9 9 9 9 9 9 9 9 9 9 9 9 9 9 8 8 8 8 7 7 7 7 6 6 5 5
12 12 11 11 11 11 10 10 10 10 10 10 9 9 9 9 9 9 9 9 9 9 8 9 9 9 9 9 9 9 9 8 8 8 7 7 7 7 7 6 6 6 5 5
11 11 10 10 10 10 10 10 10 9 9 9 9 9 9 9 9 9 9 9 8 8 8 8 8 8 8 8 9 9 8 8 8 7 7 7 7 6 6 6 6 5 5 5
10 10 10 10 9 9 9 9 9 9 9 9 9 9 9 8 8 8 9 8 8 8 8 8 8 8 8 8 8 9 8 8 8 8 7 7 7 6 6 6 6 5 5 5
10 9 9 9 9 9 9 9 9 9 9 9 9 9 8 8 8 8 8 8 8 8 8 8 8 8 8 8 8 8 8 8 8 7 7 7 6 6 6 6 5 5 5 4
9 9 9 9 9 8 8 9 9 9 9 9 9 9 9 8 8 8 8 8 8 8 8 8 8 8 8 8 8 8 8 7 7 7 7 6 6 6 6 5 5 5 4 4
9 9 8 8 8 8 8 8 9 8 8 8 8 8 8 8 8 8 8 8 8 8 8 8 7 7 7 8 7 7 7 7 7 7 6 6 6 6 5 5 5 4 4 4
8 8 8 8 8 8 8 8 8 8 8 8 8 8 8 8 8 8 7 7 7 7 7 7 7 7 7 7 7 7 7 7 7 6 6 6 6 5 5 5 5 4 4 4
8 8 8 9 9 9 9 9 9 9 9 8 8 8 8 8 7 7 7 7 7 7 7 7 6 7 7 7 6 6 6 6 6 6 6 6 5 5 5 5 4 4 4 4
8 8 8 8 9 9 9 9 9 9 9 8 8 8 8 8 7 7 7 7 7 7 7 7 7 7 7 6 6 6 6 6 6 6 5 5 5 5 5 4 4 4 4 4
Wind_Speed
10 6 10 14 15 16 16 14 12 9 8 5 5 5 5 7 8 9 9 9 8 7 7 6 6 5 5 6 6 7 7 8 8 8 8 7 7 7 7 7 7 7 7 7
11 10 11 12 13 14 14 13 12 8 5 4 5 5 6 7 8 9 8 8 7 7 7 6 6 6 6 6 6 7 7 7 7 7 7 7 7 6 6 6 7 7 7 7
12 12 12 14 13 13 12 10 11 10 5 8 7 6 5 5 7 7 7 7 6 6 5 5 5 5 6 6 6 7 7 7 7 7 7 6 6 6 6 6 6 6 6 6
10 11 15 7 4 8 9 8 6 3 6 7 7 7 6 5 6 6 7 6 5 4 4 4 4 5 5 5 6 6 6 6 6 7 7 7 6 6 6 5 5 5 5 5
10 14 12 5 6 8 9 8 6 7 8 9 9 9 7 5 5 5 5 5 4 4 4 4 4 4 5 5 6 6 6 6 6 7 7 7 7 6 6 6 5 4 4 4
10 13 13 8 8 5 7 9 7 8 9 9 9 6 5 6 6 6 5 5 5 4 5 4 3 4 5 5 6 6 5 5 5 6 6 6 6 6 6 6 6 6 6 5
12 12 7 5 7 7 10 5 8 8 8 7 3 4 8 7 6 6 6 6 5 5 5 4 3 4 4 4 4 4 5 5 5 5 6 6 6 6 6 7 8 8 8 8
11 13 8 6 7 5 2 5 7 7 7 7 8 9 8 7 7 6 6 6 6 5 5 4 4 4 5 4 3 4 5 6 6 6 6 6 8 7 7 8 9 9 9 8
4 3 5 3 3 4 3 4 5 6 7 8 9 9 8 7 7 6 6 6 5 6 6 5 5 5 6 5 5 6 7 7 7 8 8 8 8 8 7 6 7 7 7 7
2 3 4 3 3 3 3 4 4 6 8 9 9 9 8 7 7 6 6 6 6 6 6 6 6 6 6 6 6 8 9 9 9 10 10 9 7 6 6 6 7 7 8 8
4 4 4 3 3 4 5 6 6 7 8 8 10 9 8 7 7 6 6 6 6 7 7 7 7 7 7 7 9 10 11 10 10 11 12 12 12 11 9 9 8 8 8 8
3 5 4 5 4 5 6 7 8 9 9 9 9 10 9 8 7 7 7 7 7 8 8 8 8 8 8 7 9 11 11 11 10 10 11 11 13 15 21 18 21 20 16 12
1 3 4 6 6 6 7 8 9 10 10 10 10 10 10 9 8 8 8 8 8 9 9 9 9 9 8 8 10 12 12 12 11 11 11 11 12 13 14 16 21 21 19 17
5 6 6 7 7 8 9 10 11 11 11 11 10 11 10 10 10 9 9 9 10 10 10 10 11 11 9 10 12 14 14 13 12 10 10 11 11 11 11 12 12 12 13 15
5 4 7 9 10 9 10 11 12 11 11 11 11 11 11 11 11 10 10 10 11 12 11 11 12 11 10 11 13 13 12 11 11 11 11 11 11 11 11 12 11 11 10 10
6 8 9 10 10 10 10 11 12 11 11 12 11 11 12 12 12 11 11 11 12 12 11 11 12 10 10 11 13 12 12 13 11 11 11 10 10 10 10 10 10 9 9 8
9 9 10 11 11 11 10 10 11 12 12 12 12 13 13 14 14 13 12 12 13 13 12 11 11 10 10 10 11 11 12 12 12 10 10 10 9 9 9 9 9 9 9 8
6 8 9 11 12 12 12 11 12 13 12 13 13 13 13 14 14 13 12 13 14 13 11 10 10 10 10 11 10 10 10 10 9 10 10 9 9 9 9 9 10 10 9 9
8 10 11 12 12 12 13 13 13 13 13 13 14 14 14 14 13 13 12 12 12 12 9 9 9 11 12 10 9 9 10 11 11 10 10 9 9 8 8 8 8 8 7 7
11 12 13 13 14 14 14 14 15 14 13 14 15 15 15 13 12 12 12 11 9 8 8 8 9 10 10 8 6 9 10 10 10 9 9 8 8 8 8 8 7 7 7 6
13 14 15 15 15 15 15 14 14 14 13 13 14 15 14 13 12 11 11 10 8 8 9 7 7 8 8 7 5 8 8 8 8 8 8 8 8 7 7 7 7 6 6 6
14 15 16 16 16 15 14 13 13 14 13 13 14 14 14 13 12 11 10 8 8 5 6 7 7 9 7 5 7 8 8 8 7 7 7 7 7 7 6 6 6 5 5 5
14 15 16 16 16 15 14 13 13 13 13 13 13 13 13 11 9 10 9 7 8 6 6 8 9 8 3 5 7 8 8 7 7 7 7 6 6 6 6 6 5 5 4 4
15 16 16 16 16 16 15 13 12 12 13 12 12 12 12 10 9 9 10 10 9 8 9 9 8 5 2 6 7 7 7 6 6 6 6 6 6 5 5 5 4 4 4 3
15 16 16 17 15 13 14 14 14 13 13 11 12 12 9 9 9 9 10 10 9 9 10 9 6 2 4 6 6 6 5 5 5 5 5 5 5 5 4 4 3 3 2 2
13 13 12 12 11 11 11 11 11 11 11 11 10 9 9 9 10 9 9 10 10 8 8 8 7 4 5 6 6 6 5 6 5 4 4 4 4 3 3 3 3 2 2 1
14 12 11 11 10 10 11 11 11 11 10 10 10 9 9 9 9 9 9 8 8 7 7 6 6 5 5 6 5 5 4 4 4 4 3 3 3 3 3 2 1 1 1 1
Wind_Direction
236 222 202 205 204 207 219 231 238 229 229 199 164 163 155 152 153 154 153 156 157 156 153 158 159 163 173 173 174 177 179 182 186 186 187 188 188 189 188 190 194 195 197 202
215 211 211 211 210 208 216 227 234 233 213 125 128 139 144 151 154 154 152 153 152 153 156 163 168 172 174 177 176 176 183 187 186 185 185 187 187 183 182 186 189 187 192 193
211 200 205 213 209 207 210 219 227 224 185 143 144 137 134 141 146 145 142 141 145 148 155 162 171 176 178 178 174 177 186 189 185 184 182 182 180 178 183 186 186 183 185 186
210 195 217 202 184 208 205 205 209 172 139 141 127 115 102 110 128 131 132 129 125 129 140 151 160 171 176 175 175 175 180 182 178 181 180 177 177 176 174 172 168 167 170 173
212 214 212 168 175 191 198 199 189 166 144 134 129 125 106 93 104 113 118 115 112 114 123 133 145 158 163 165 166 167 175 178 179 177 175 171 170 165 159 154 149 152 150 145
220 228 222 193 166 186 207 203 172 165 156 154 169 185 127 107 102 100 101 103 103 105 107 111 123 143 152 153 158 165 169 172 171 167 165 163 156 146 141 134 128 118 103 95
220 227 223 118 145 178 211 190 147 157 159 163 157 74 110 110 98 96 97 96 95 96 95 94 99 121 133 137 145 152 150 148 145 143 143 140 135 131 131 126 118 111 103 91
219 226 213 134 170 195 87 95 135 143 141 131 112 110 114 110 103 97 97 96 97 93 84 77 83 100 112 114 116 124 129 130 131 130 130 127 121 119 120 123 118 111 104 95
225 217 83 114 104 70 92 113 126 136 134 134 132 127 121 113 105 97 95 93 94 92 81 69 69 86 95 93 101 110 112 110 110 105 102 107 112 117 118 120 118 115 112 104
189 149 123 115 107 96 106 117 123 133 135 139 135 131 124 112 101 95 92 93 95 94 85 71 66 76 86 94 102 105 104 102 100 99 95 89 90 94 100 109 116 115 111 106
199 169 156 146 121 105 109 113 117 121 128 133 132 128 120 112 104 95 90 87 89 90 87 79 75 74 79 94 105 103 100 99 96 91 90 82 73 60 68 62 75 94 100 102
205 171 178 143 126 121 120 119 120 122 121 120 122 122 115 108 102 97 96 95 92 91 89 85 82 79 80 92 107 109 104 99 97 97 96 96 94 80 61 66 63 63 63 81
126 131 115 125 124 123 120 118 118 119 119 116 114 115 112 107 103 100 100 101 99 96 93 89 85 81 81 89 99 100 102 101 100 99 100 102 103 102 95 75 66 63 65 72
128 130 135 139 129 123 121 118 116 113 113 115 115 112 110 107 103 99 97 98 100 99 96 95 92 88 89 95 98 100 101 98 99 99 100 101 102 103 105 106 101 89 76 78
157 152 142 133 128 126 126 126 122 118 117 115 114 112 110 107 102 98 98 101 100 97 95 94 92 89 93 99 101 102 103 104 103 104 104 103 104 104 103 103 104 107 107 99
149 140 142 141 137 136 135 134 128 124 122 119 116 112 109 106 102 97 96 96 97 94 93 93 92 93 98 103 105 101 97 98 105 108 108 108 107 108 108 108 107 106 104 105
163 159 155 151 146 141 137 135 130 128 124 120 117 113 110 108 103 98 95 94 93 93 93 93 95 101 106 108 109 109 109 109 111 110 109 109 109 110 110 109 105 101 94 76
170 159 154 149 146 139 134 130 127 124 122 121 120 117 115 111 107 104 103 101 95 87 82 87 94 100 101 103 105 108 112 112 110 106 106 106 108 108 107 106 107 108 110 107
144 142 138 136 135 134 131 129 127 124 124 124 121 116 111 107 106 105 103 99 98 93 86 89 91 99 99 99 106 110 109 109 108 107 108 113 114 111 111 111 109 109 109 108
134 133 132 131 129 128 126 126 123 120 120 120 118 115 112 110 110 107 101 91 84 93 103 100 102 99 101 97 98 108 108 110 112 114 116 115 111 112 112 112 110 109 106 104
135 133 130 127 124 122 123 122 121 120 120 121 120 118 115 114 114 112 108 100 91 95 103 103 105 107 105 105 113 110 112 114 116 116 116 113 112 112 110 108 108 108 107 105
132 130 128 126 124 122 120 120 120 120 121 122 122 121 119 118 115 107 96 100 109 108 115 111 105 91 93 114 114 110 112 113 112 111 111 113 115 115 115 115 114 114 113 112
128 126 125 125 124 121 119 121 122 122 123 123 124 124 121 118 119 118 113 110 115 108 100 93 90 91 96 116 105 108 108 110 112 112 112 113 113 115 117 116 113 113 113 114
124 123 124 124 123 122 120 119 115 114 116 118 119 120 120 117 112 107 107 102 93 102 101 96 94 91 106 108 105 106 109 112 116 118 118 118 116 115 115 115 116 117 117 120
121 124 125 126 125 123 122 121 120 122 122 120 120 121 118 113 114 114 115 115 118 117 111 106 101 103 118 104 105 105 106 102 106 114 119 121 122 122 123 126 128 132 135 141
121 122 122 123 123 127 130 130 129 129 126 123 121 117 113 113 116 120 120 122 121 121 121 124 127 141 113 108 107 108 111 118 122 120 112 119 119 117 117 121 133 148 153 153
117 117 118 120 123 127 128 128 127 126 126 125 122 120 121 124 124 125 127 128 130 129 128 129 129 128 124 122 118 118 121 122 120 119 126 127 125 127 129 146 156 154 180 170
Height
1443 1441 1443 1448 1452 1455 1457 1455 1459 1459 1459 1460 1465 1470 1474 1477 1480 1483 1487 1490 1492 1494 1496 1498 1500 1501 1503 1505 1506 1508 1509 1511 1514 1516 1518 1521 1523 1525 1527 1529 1531 1534 1536 1538
1449 1445 1446 1449 1449 1451 1453 1453 1453 1455 1459 1463 1469 1472 1475 1478 1480 1483 1486 1489 1492 1494 1495 1497 1499 1500 1502 1504 1505 1506 1508 1510 1512 1514 1516 1519 1521 1523 1525 1527 1529 1531 1533 1535
1449 1447 1450 1456 1448 1449 1451 1451 1452 1455 1458 1465 1469 1473 1476 1479 1481 1483 1486 1489 1491 1493 1494 1496 1497 1499 1500 1502 1503 1505 1506 1508 1510 1512 1514 1516 1518 1520 1522 1524 1526 1528 1530 1532
1445 1453 1466 1447 1444 1445 1449 1452 1452 1455 1460 1465 1470 1475 1478 1480 1482 1484 1486 1489 1490 1492 1493 1494 1496 1498 1499 1500 1501 1503 1504 1506 1507 1509 1511 1513 1515 1517 1519 1521 1523 1525 1527 1529
1446 1452 1450 1452 1449 1448 1451 1454 1455 1458 1463 1469 1473 1475 1480 1482 1484 1485 1487 1488 1489 1491 1492 1493 1494 1496 1497 1498 1499 1501 1502 1503 1505 1507 1509 1511 1512 1514 1516 1518 1520 1522 1525 1527
1447 1451 1455 1446 1447 1451 1452 1457 1457 1460 1465 1468 1471 1469 1478 1483 1484 1485 1487 1487 1488 1490 1491 1492 1493 1494 1495 1496 1497 1499 1500 1501 1503 1504 1506 1508 1510 1511 1513 1515 1517 1520 1523 1524
1447 1449 1443 1446 1450 1453 1460 1457 1459 1462 1466 1469 1470 1472 1480 1482 1484 1485 1486 1487 1488 1489 1490 1491 1492 1493 1494 1494 1496 1497 1498 1499 1501 1502 1504 1506 1508 1510 1512 1514 1516 1518 1521 1523
1445 1450 1450 1451 1452 1453 1456 1459 1461 1464 1467 1471 1474 1477 1480 1482 1484 1485 1486 1487 1488 1489 1489 1490 1491 1492 1492 1493 1494 1495 1496 1498 1499 1501 1503 1505 1507 1509 1511 1514 1515 1518 1520 1522
1443 1449 1453 1453 1455 1459 1461 1462 1464 1466 1469 1472 1476 1479 1481 1483 1484 1486 1486 1487 1488 1489 1489 1490 1491 1491 1491 1492 1493 1494 1496 1497 1498 1500 1502 1504 1506 1509 1511 1514 1516 1517 1520 1522
1449 1451 1455 1457 1459 1461 1462 1464 1466 1469 1471 1474 1476 1479 1481 1483 1485 1486 1487 1487 1488 1489 1490 1490 1490 1491 1491 1492 1493 1494 1496 1497 1499 1500 1502 1504 1507 1509 1512 1514 1516 1518 1520 1522
1450 1454 1457 1459 1461 1462 1464 1465 1467 1470 1472 1474 1477 1479 1481 1483 1484 1486 1487 1488 1489 1490 1490 1491 1491 1491 1492 1493 1494 1495 1496 1498 1500 1501 1502 1505 1507 1510 1513 1514 1516 1519 1522 1524
1446 1453 1454 1459 1462 1463 1465 1466 1468 1471 1473 1476 1478 1480 1482 1483 1485 1486 1488 1489 1490 1491 1491 1492 1492 1493 1493 1494 1495 1496 1498 1500 1502 1503 1505 1507 1509 1512 1515 1517 1519 1521 1523 1525
1453 1455 1457 1460 1462 1464 1466 1467 1469 1472 1474 1476 1479 1481 1483 1484 1486 1487 1489 1490 1491 1492 1493 1493 1494 1495 1495 1497 1498 1498 1500 1502 1505 1507 1509 1512 1514 1515 1517 1520 1522 1525 1527 1529
1455 1456 1459 1461 1463 1465 1467 1469 1471 1473 1476 1478 1480 1482 1484 1486 1488 1489 1490 1492 1493 1494 1495 1496 1497 1498 1499 1500 1501 1502 1504 1506 1508 1511 1514 1516 1518 1520 1522 1523 1526 1529 1531 1533
1455 1457 1459 1461 1464 1466 1468 1470 1472 1475 1478 1480 1482 1484 1486 1488 1489 1491 1493 1494 1495 1496 1498 1499 1500 1501 1502 1504 1505 1506 1508 1510 1513 1516 1518 1520 1523 1525 1527 1528 1531 1533 1535 1536
1455 1457 1459 1461 1464 1466 1469 1472 1474 1477 1479 1481 1483 1486 1488 1490 1491 1493 1495 1497 1498 1500 1501 1503 1504 1505 1507 1508 1509 1511 1513 1515 1517 1520 1523 1525 1527 1529 1531 1533 1535 1537 1539 1540
1454 1456 1458 1461 1464 1467 1470 1472 1475 1478 1480 1483 1485 1488 1490 1492 1495 1497 1499 1501 1502 1504 1506 1507 1508 1510 1511 1513 1515 1516 1518 1520 1522 1525 1527 1529 1531 1533 1535 1537 1538 1540 1541 1542
1453 1456 1458 1461 1464 1467 1470 1473 1476 1479 1482 1485 1488 1490 1493 1496 1498 1501 1503 1505 1507 1508 1510 1512 1513 1514 1516 1518 1520 1521 1523 1525 1527 1529 1531 1533 1535 1537 1538 1540 1541 1543 1544 1545
1453 1456 1459 1462 1465 1468 1472 1475 1478 1481 1485 1488 1491 1494 1497 1499 1502 1505 1507 1509 1511 1513 1515 1517 1518 1519 1520 1522 1524 1525 1527 1529 1531 1533 1534 1536 1538 1540 1541 1543 1544 1546 1547 1548
1454 1457 1460 1464 1467 1470 1474 1477 1481 1484 1488 1491 1494 1497 1500 1504 1507 1509 1511 1513 1515 1518 1520 1521 1523 1524 1526 1527 1529 1530 1532 1533 1535 1537 1538 1540 1541 1543 1544 1546 1547 1548 1549 1550
1456 1459 1462 1466 1470 1473 1477 1480 1484 1488 1492 1495 1498 1501 1504 1508 1511 1513 1515 1517 1520 1522 1524 1525 1527 1528 1530 1531 1533 1534 1535 1537 1538 1540 1541 1543 1544 1545 1546 1548 1549 1550 1551 1552
1458 1461 1465 1469 1473 1476 1481 1485 1488 1492 1495 1499 1503 1505 1508 1511 1514 1517 1519 1522 1524 1526 1528 1530 1531 1531 1533 1534 1536 1538 1539 1540 1541 1543 1544 1545 1546 1547 1548 1549 1551 1551 1552 1553
1461 1464 1468 1472 1476 1480 1485 1489 1493 1496 1500 1503 1507 1509 1512 1515 1518 1520 1523 1525 1527 1529 1531 1532 1532 1534 1535 1538 1539 1540 1541 1542 1544 1545 1546 1547 1548 1549 1550 1551 1552 1552 1553 1553
1464 1469 1473 1477 1481 1485 1489 1494 1497 1501 1504 1507 1511 1514 1516 1519 1522 1524 1526 1528 1529 1531 1533 1534 1535 1537 1538 1541 1542 1542 1543 1545 1546 1547 1548 1549 1549 1550 1551 1552 1552 1553 1553 1553
1469 1473 1477 1482 1486 1490 1494 1498 1502 1505 1509 1512 1515 1518 1520 1523 1524 1527 1529 1530 1532 1534 1535 1537 1538 1539 1542 1543 1544 1544 1546 1547 1548 1548 1549 1550 1551 1551 1552 1552 1553 1553 1553 1554
1474 1479 1483 1487 1490 1494 1498 1502 1506 1509 1512 1515 1518 1521 1523 1525 1527 1529 1531 1533 1535 1536 1538 1539 1541 1542 1544 1545 1545 1546 1547 1548 1549 1550 1550 1551 1551 1552 1552 1552 1553 1553 1553 1553
1480 1484 1488 1492 1496 1499 1502 1506 1509 1512 1515 1517 1520 1523 1525 1528 1530 1532 1534 1536 1537 1539 1540 1542 1543 1544 1545 1546 1547 1547 1548 1549 1550 1550 1551 1551 1552 1552 1552 1552 1553 1553 1553 1552